User: anonymous   Login
Location: Arrakis Observatory
(44.1122°N, 95.7153°W)
Time: 06:02:49
(UTC-05:00)
Language:

Iridium 35 - Orbit

View from above orbital plane
View from above orbital plane
View from above satellite
View from above satellite

Ground track
Ground track

The orbit data is extracted from the following two-line orbital elements,

1 24966U 97056B   18144.59235573 -.00000024 +00000-0 -14339-4 0  9993
2 24966 086.4240 176.0112 0002451 086.7223 273.4256 14.38611277081201
Epoch (UTC): 24 May 2018 14:12:59
Eccentricity: 0.0002451
inclination: 86.4240°
perigee height: 761 km
apogee height: 765 km
right ascension of ascending node: 176.0112°
argument of perigee: 86.7223°
revolutions per day: 14.38611277
mean anomaly at epoch: 273.4256°
orbit number at epoch: 8120

The dashed part of the orbit path shows where the satellite is in the earth's shadow,  

DLR